• în România
  • Lista ţărilor
  • Pe 7 zile
  • Temperatura apei
  • Hartă satelitară
  • Meteo pe hartă
  • Widget-uri
  • user-avatar
    Intrare

    Meteo pe oră la Antwerp

    Astăzi, 22 Februarie, Joi

    Timp Temperatura Precipitaţii Vânt Presiune Umiditate
    00:00 -3°C° 0 mm 4 m/s 767 mmHg 77%
    01:00 -3°C° 0 mm 4 m/s 767 mmHg 77%
    02:00 -3°C° 0 mm 4 m/s 767 mmHg 78%
    03:00 -3°C° 0 mm 4 m/s 766 mmHg 78%
    04:00 -3°C° 0 mm 4 m/s 766 mmHg 77%
    05:00 -3°C° 0 mm 4 m/s 766 mmHg 76%
    06:00 -3°C° 0 mm 4 m/s 766 mmHg 75%
    07:00 -2°C° 0 mm 5 m/s 766 mmHg 69%
    08:00 -2°C° 0 mm 5 m/s 767 mmHg 63%
    09:00 -2°C° 0 mm 6 m/s 767 mmHg 58%
    10:00 -1°C° 0 mm 6 m/s 767 mmHg 53%
    11:00 +1°C° 0 mm 6 m/s 766 mmHg 48%
    12:00 +3°C° 0 mm 6 m/s 766 mmHg 44%
    13:00 +3°C° 0 mm 6 m/s 766 mmHg 44%
    14:00 +3°C° 0 mm 6 m/s 766 mmHg 45%
    15:00 +3°C° 0 mm 6 m/s 765 mmHg 46%
    16:00 +2°C° 0 mm 6 m/s 765 mmHg 50%
    17:00 0°C° 0 mm 5 m/s 766 mmHg 55%
    18:00 -1°C° 0 mm 5 m/s 766 mmHg 60%
    19:00 -1°C° 0 mm 5 m/s 766 mmHg 62%
    20:00 -2°C° 0 mm 5 m/s 766 mmHg 64%
    21:00 -2°C° 0 mm 5 m/s 766 mmHg 66%
    22:00 -2°C° 0 mm 5 m/s 766 mmHg 66%
    23:00 -4°C° 0 mm 5 m/s 766 mmHg 67%

    Mâine, 23 Februarie, Vineri

    Timp Temperatura Precipitaţii Vânt Presiune Umiditate
    00:00 -3°C° 0 mm 4 m/s 766 mmHg 68%
    01:00 -3°C° 0 mm 4 m/s 766 mmHg 68%
    02:00 -3°C° 0 mm 4 m/s 766 mmHg 68%
    03:00 -4°C° 0 mm 5 m/s 766 mmHg 67%
    04:00 -4°C° 0 mm 5 m/s 766 mmHg 66%
    05:00 -4°C° 0 mm 5 m/s 766 mmHg 65%
    06:00 -4°C° 0 mm 5 m/s 766 mmHg 64%
    07:00 -4°C° 0 mm 6 m/s 766 mmHg 59%
    08:00 -3°C° 0 mm 6 m/s 766 mmHg 54%
    09:00 -2°C° 0 mm 7 m/s 766 mmHg 48%
    10:00 -1°C° 0 mm 7 m/s 765 mmHg 45%
    11:00 0°C° 0 mm 7 m/s 765 mmHg 42%
    12:00 +2°C° 0 mm 7 m/s 765 mmHg 38%
    13:00 +2°C° 0 mm 7 m/s 764 mmHg 38%
    14:00 +2°C° 0 mm 7 m/s 764 mmHg 37%
    15:00 +2°C° 0 mm 7 m/s 764 mmHg 36%
    16:00 +1°C° 0 mm 6 m/s 764 mmHg 39%
    17:00 -2°C° 0 mm 6 m/s 764 mmHg 41%
    18:00 -3°C° 0 mm 6 m/s 764 mmHg 43%
    19:00 -3°C° 0 mm 6 m/s 764 mmHg 42%
    20:00 -3°C° 0 mm 6 m/s 764 mmHg 41%
    21:00 -4°C° 0 mm 6 m/s 765 mmHg 41%
    22:00 -4°C° 0 mm 6 m/s 765 mmHg 40%
    23:00 -4°C° 0 mm 6 m/s 764 mmHg 40%

    Poimâine, 24 Februarie, Sâmbătă

    Timp Temperatura Precipitaţii Vânt Presiune Umiditate
    00:00 -5°C° 0 mm 6 m/s 764 mmHg 40%
    01:00 -5°C° 0 mm 6 m/s 764 mmHg 40%
    02:00 -5°C° 0 mm 6 m/s 764 mmHg 41%
    03:00 -5°C° 0 mm 6 m/s 764 mmHg 41%
    04:00 -5°C° 0 mm 6 m/s 764 mmHg 40%
    05:00 -5°C° 0 mm 6 m/s 764 mmHg 39%
    06:00 -6°C° 0 mm 7 m/s 764 mmHg 38%
    07:00 -4°C° 0 mm 7 m/s 765 mmHg 35%
    08:00 -3°C° 0 mm 7 m/s 765 mmHg 32%
    09:00 -4°C° 0 mm 8 m/s 765 mmHg 29%
    10:00 -1°C° 0 mm 8 m/s 765 mmHg 28%
    11:00 0°C° 0 mm 8 m/s 765 mmHg 26%
    12:00 +1°C° 0 mm 8 m/s 765 mmHg 25%
    13:00 +1°C° 0 mm 8 m/s 764 mmHg 27%
    14:00 +2°C° 0 mm 8 m/s 764 mmHg 30%
    15:00 +2°C° 0 mm 8 m/s 764 mmHg 32%
    16:00 +1°C° 0 mm 8 m/s 764 mmHg 37%
    17:00 0°C° 0 mm 8 m/s 765 mmHg 43%
    18:00 -2°C° 0 mm 7 m/s 765 mmHg 48%
    19:00 -2°C° 0 mm 7 m/s 766 mmHg 48%
    20:00 -3°C° 0 mm 7 m/s 766 mmHg 47%
    21:00 -3°C° 0 mm 7 m/s 767 mmHg 47%
    22:00 -4°C° 0 mm 7 m/s 767 mmHg 46%
    23:00 -4°C° 0 mm 7 m/s 767 mmHg 45%

    25 Februarie, Duminică

    Timp Temperatura Precipitaţii Vânt Presiune Umiditate
    00:00 -6°C° 0 mm 7 m/s 767 mmHg 44%
    01:00 -6°C° 0 mm 7 m/s 767 mmHg 44%
    02:00 -6°C° 0 mm 7 m/s 767 mmHg 44%
    03:00 -6°C° 0 mm 7 m/s 767 mmHg 44%
    04:00 -6°C° 0 mm 7 m/s 767 mmHg 44%
    05:00 -7°C° 0 mm 7 m/s 768 mmHg 44%
    06:00 -7°C° 0 mm 7 m/s 768 mmHg 44%
    07:00 -6°C° 0 mm 7 m/s 768 mmHg 41%
    08:00 -6°C° 0 mm 8 m/s 768 mmHg 38%
    09:00 -5°C° 0 mm 8 m/s 768 mmHg 35%
    10:00 -4°C° 0 mm 8 m/s 768 mmHg 32%
    11:00 -4°C° 0 mm 8 m/s 768 mmHg 28%
    12:00 -2°C° 0 mm 8 m/s 768 mmHg 24%
    13:00 -2°C° 0 mm 8 m/s 768 mmHg 23%
    14:00 -2°C° 0 mm 8 m/s 768 mmHg 22%
    15:00 -1°C° 0 mm 8 m/s 768 mmHg 22%
    16:00 -3°C° 0 mm 7 m/s 768 mmHg 24%
    17:00 -4°C° 0 mm 7 m/s 768 mmHg 27%
    18:00 -5°C° 0 mm 6 m/s 769 mmHg 30%
    19:00 -5°C° 0 mm 6 m/s 769 mmHg 34%
    20:00 -5°C° 0 mm 6 m/s 769 mmHg 37%
    21:00 -6°C° 0 mm 6 m/s 770 mmHg 40%
    22:00 -6°C° 0 mm 6 m/s 770 mmHg 42%
    23:00 -6°C° 0 mm 6 m/s 770 mmHg 44%

    26 Februarie, Luni

    Timp Temperatura Precipitaţii Vânt Presiune Umiditate
    00:00 -6°C° 0 mm 6 m/s 770 mmHg 46%
    01:00 -6°C° 0 mm 6 m/s 770 mmHg 47%
    02:00 -6°C° 0 mm 6 m/s 770 mmHg 48%
    03:00 -6°C° 0 mm 6 m/s 769 mmHg 49%
    04:00 -8°C° 0 mm 6 m/s 769 mmHg 48%
    05:00 -8°C° 0 mm 6 m/s 769 mmHg 48%
    06:00 -8°C° 0 mm 6 m/s 769 mmHg 47%
    07:00 -7°C° 0 mm 7 m/s 769 mmHg 46%
    08:00 -7°C° 0 mm 7 m/s 769 mmHg 44%
    09:00 -7°C° 0 mm 8 m/s 769 mmHg 43%
    10:00 -6°C° 0 mm 8 m/s 769 mmHg 40%
    11:00 -5°C° 0 mm 8 m/s 768 mmHg 37%
    12:00 -5°C° 0 mm 8 m/s 768 mmHg 35%
    13:00 -4°C° 0 mm 7 m/s 768 mmHg 34%
    14:00 -4°C° 0 mm 7 m/s 767 mmHg 34%
    15:00 -4°C° 0 mm 7 m/s 767 mmHg 34%
    16:00 -5°C° 0 mm 6 m/s 767 mmHg 37%
    17:00 -5°C° 0 mm 6 m/s 767 mmHg 40%
    18:00 -6°C° 0 mm 5 m/s 767 mmHg 42%
    19:00 -6°C° 0 mm 5 m/s 767 mmHg 44%
    20:00 -6°C° 0 mm 5 m/s 767 mmHg 46%
    21:00 -7°C° 0 mm 5 m/s 767 mmHg 48%
    22:00 -7°C° 0 mm 5 m/s 766 mmHg 48%
    23:00 -7°C° 0 mm 4 m/s 766 mmHg 49%

    27 Februarie, Marţi

    Timp Temperatura Precipitaţii Vânt Presiune Umiditate
    00:00 -7°C° 0 mm 4 m/s 766 mmHg 49%
    01:00 -7°C° 0 mm 4 m/s 766 mmHg 50%
    02:00 -8°C° 0 mm 4 m/s 765 mmHg 50%
    03:00 -8°C° 0 mm 4 m/s 765 mmHg 51%
    04:00 -8°C° 0 mm 4 m/s 765 mmHg 51%
    05:00 -8°C° 0 mm 4 m/s 765 mmHg 51%
    06:00 -8°C° 0 mm 4 m/s 765 mmHg 52%
    07:00 -8°C° 0 mm 4 m/s 765 mmHg 47%
    08:00 -7°C° 0 mm 5 m/s 765 mmHg 43%
    09:00 -7°C° 0 mm 5 m/s 765 mmHg 38%
    10:00 -6°C° 0 mm 5 m/s 764 mmHg 34%
    11:00 -5°C° 0 mm 5 m/s 764 mmHg 30%
    12:00 -4°C° 0 mm 5 m/s 764 mmHg 26%
    13:00 -4°C° 0 mm 5 m/s 764 mmHg 25%
    14:00 -3°C° 0 mm 4 m/s 764 mmHg 25%
    15:00 -2°C° 0 mm 4 m/s 763 mmHg 25%
    16:00 -3°C° 0 mm 4 m/s 763 mmHg 29%
    17:00 -4°C° 0 mm 3 m/s 764 mmHg 32%
    18:00 -4°C° 0 mm 2 m/s 764 mmHg 36%
    19:00 -4°C° 0 mm 2 m/s 764 mmHg 39%
    20:00 -4°C° 0 mm 2 m/s 764 mmHg 42%
    21:00 -5°C° 0 mm 2 m/s 765 mmHg 45%
    22:00 -5°C° 0 mm 2 m/s 765 mmHg 46%
    23:00 -5°C° 0 mm 2 m/s 765 mmHg 48%
    Arată mai mult